Home > Weather > Rae-Edzo > Past weeks

Flag for Canada Past Weather in Rae-Edzo, Northwest Territories, Canada — Yesterday and Last 2 Weeks

Now
85 °F

Pleasantly warm.


Feels Like: 82 °F
Forecast: 63 / 82 °F
Wind: 12 mph from Southeast

Location: Lac La Martre

Current Time: Jul 1, 2016 at 4:41:38 PM

Latest Report: Jul 1, 2016 at 4:00 PM


Visibility: N/A

Pressure: 29.79 "Hg

Humidity: 29%

Dew Point: 49 °F

Location of Rae-EdzoLocation

Past Weather in Rae-Edzo — Graph

°F

Rae-Edzo Temperature Yesterday

Maximum temperature yesterday: 85 °F (at 5:00 PM)
Minimum temperature yesterday: 62 °F (at 4:00 AM)
Average temperature yesterday: 76 °F

High & Low Weather Summary for the Past Weeks

 TemperatureHumidityPressure
High87 °F (Jul 1, 3:00 PM)94% (Jun 28, 3:00 AM)30.18 "Hg (Jun 28, 3:00 AM)
Low40 °F (Jun 18, 12:00 AM)15% (Jun 19, 8:00 PM)29.63 "Hg (Jun 21, 9:00 AM)
Average65 °F51%29.92 "Hg
* Reported Jun 16 3:00 PM — Jul 1 3:00 PM, Rae-Edzo, Weather by CustomWeather, © 2016

Note: Actual official high and low records may vary slightly from our data, if they occured in-between our weather recording intervals... More about our weather records

Advertising

Rae-Edzo Weather History for the Previous 24 Hours

Scroll right to see more
 ConditionsComfort  
Time TempWeatherWind HumidityBarometerVisibility
3:00 PM
Fri, Jul 1
87 °FPleasantly warm.10 mph25%29.80 "HgN/A
2:00 PM86 °FPleasantly warm.13 mph24%29.81 "HgN/A
1:00 PM86 °FPleasantly warm.13 mph26%29.82 "HgN/A
12:00 PM85 °FPleasantly warm.9 mph31%29.83 "HgN/A
11:00 AM82 °FPleasantly warm.12 mph37%29.84 "HgN/A
10:00 AM79 °FPleasantly warm.12 mph39%29.85 "HgN/A
9:00 AM76 °FMild.8 mph46%29.86 "HgN/A
8:00 AM71 °FMild.9 mph50%29.87 "HgN/A
7:00 AM69 °FMild.8 mph52%29.87 "HgN/A
6:00 AM68 °FMild.9 mph54%29.87 "HgN/A
5:00 AM67 °FMild.7 mph60%29.88 "HgN/A
4:00 AM65 °FMild.7 mph66%29.90 "HgN/A
3:00 AM67 °FMild.7 mph57%29.91 "HgN/A
2:00 AM69 °FMild.7 mph56%29.92 "HgN/A
1:00 AM70 °FMild.7 mph54%29.93 "HgN/A
12:00 AM71 °FMild.7 mph51%29.93 "HgN/A
11:00 PM
Thu, Jun 30
75 °FMild.7 mph39%29.93 "HgN/A
10:00 PM79 °FPleasantly warm.9 mph27%29.93 "HgN/A
9:00 PM80 °FPleasantly warm.9 mph30%29.94 "HgN/A
8:00 PM80 °FPleasantly warm.9 mph31%29.94 "HgN/A
7:00 PM83 °FPleasantly warm.12 mph25%29.95 "HgN/A
6:00 PM84 °FPleasantly warm.10 mph26%29.96 "HgN/A
5:00 PM85 °FPleasantly warm.12 mph27%29.97 "HgN/A
4:00 PM85 °FPleasantly warm.10 mph26%29.98 "HgN/A
Weather by CustomWeather, © 2016

See weather overviewHow to use our weather pages